DFATZ LSZC-EDDF

Flight info

Callsign DFATZ
Flight time 1h 17m
Altitude 8000
Route WIL T125 ZUE/N0246F070 T125 ROMIR/N0276F200 N851 VEDOK/N0279F180 N851 TEDGO T164 KOVAN T163 SPESA SPESA5B
Aircraft PC12/L-SDFGRWY/S

Departure

Time 2026-05-07 16:25
Airport Buochs Airport (LSZC)

Arrival

Time 2026-05-07 17:42
Airport Frankfurt Main Airport (EDDF)
Time Latitude Longitude Altitude Speed Heading
2026-05-07 16:17 46.97539 8.38233 1472 ft 0 kts 196°
2026-05-07 16:20 46.97514 8.38248 1469 ft 10 kts 105°
2026-05-07 16:20 46.97535 8.38351 1470 ft 13 kts 101°
2026-05-07 16:20 46.97514 8.38505 1466 ft 21 kts 99°
2026-05-07 16:20 46.97484 8.38757 1466 ft 27 kts 101°
2026-05-07 16:21 46.97450 8.39035 1463 ft 29 kts 102°
2026-05-07 16:21 46.97421 8.39296 1460 ft 21 kts 67°
2026-05-07 16:21 46.97530 8.39430 1457 ft 21 kts 38°
2026-05-07 16:21 46.97649 8.39573 1454 ft 23 kts 39°
2026-05-07 16:22 46.97758 8.39726 1451 ft 18 kts 88°
2026-05-07 16:22 46.97745 8.39910 1449 ft 18 kts 96°
2026-05-07 16:22 46.97728 8.40090 1447 ft 18 kts 96°
2026-05-07 16:22 46.97717 8.40263 1445 ft 14 kts 78°
2026-05-07 16:23 46.97719 8.40271 1445 ft 0 kts 69°
2026-05-07 16:23 46.97720 8.40282 1444 ft 5 kts 79°
2026-05-07 16:23 46.97742 8.40358 1443 ft 12 kts 63°
2026-05-07 16:23 46.97726 8.40475 1442 ft 16 kts 164°
2026-05-07 16:24 46.97654 8.40357 1443 ft 28 kts 246°
2026-05-07 16:24 46.97507 8.39911 1449 ft 67 kts 245°
2026-05-07 16:24 46.97266 8.39176 1498 ft 87 kts 244°
2026-05-07 16:24 46.97015 8.38363 1704 ft 89 kts 248°
2026-05-07 16:25 46.96778 8.37526 1952 ft 88 kts 248°
2026-05-07 16:25 46.96536 8.36730 2170 ft 88 kts 247°
2026-05-07 16:25 46.96245 8.35850 2276 ft 104 kts 248°
2026-05-07 16:25 46.95952 8.34887 2542 ft 106 kts 250°
2026-05-07 16:26 46.95654 8.33884 2821 ft 109 kts 250°
2026-05-07 16:26 46.95344 8.32840 3081 ft 115 kts 249°
2026-05-07 16:26 46.95013 8.31730 3361 ft 124 kts 248°
2026-05-07 16:26 46.94775 8.30952 3635 ft 123 kts 245°
2026-05-07 16:27 46.94275 8.29376 4075 ft 136 kts 248°
2026-05-07 16:27 46.93880 8.28056 4431 ft 147 kts 248°
2026-05-07 16:27 46.93455 8.26663 4863 ft 150 kts 249°
2026-05-07 16:27 46.93033 8.25290 5350 ft 149 kts 248°
2026-05-07 16:28 46.92602 8.23907 5811 ft 150 kts 247°
2026-05-07 16:28 46.92164 8.22503 6232 ft 155 kts 247°
2026-05-07 16:28 46.91713 8.21030 6632 ft 159 kts 247°
2026-05-07 16:28 46.91259 8.19561 7097 ft 158 kts 246°
2026-05-07 16:29 46.90807 8.18101 7594 ft 156 kts 246°
2026-05-07 16:29 46.90358 8.16652 8082 ft 156 kts 246°
2026-05-07 16:29 46.89910 8.15207 8558 ft 156 kts 246°
2026-05-07 16:29 46.89461 8.13761 9033 ft 156 kts 246°
2026-05-07 16:30 46.89017 8.12329 9531 ft 157 kts 245°
2026-05-07 16:30 46.88562 8.10865 9992 ft 160 kts 244°
2026-05-07 16:30 46.88160 8.09348 10373 ft 162 kts 258°
2026-05-07 16:30 46.88240 8.07704 10848 ft 165 kts 285°
2026-05-07 16:31 46.88851 8.06277 11334 ft 171 kts 314°
2026-05-07 16:31 46.89893 8.05406 11817 ft 176 kts 335°
2026-05-07 16:31 46.91050 8.04799 12319 ft 177 kts 336°
2026-05-07 16:31 46.92215 8.04189 12791 ft 179 kts 336°
2026-05-07 16:32 46.93388 8.03570 13265 ft 180 kts 336°
2026-05-07 16:32 46.94571 8.02944 13748 ft 181 kts 336°
2026-05-07 16:32 46.95764 8.02313 14173 ft 183 kts 336°
2026-05-07 16:32 46.96961 8.01679 14586 ft 184 kts 336°
2026-05-07 16:33 46.98165 8.01041 14996 ft 184 kts 336°
2026-05-07 16:33 46.99375 8.00400 15422 ft 185 kts 336°
2026-05-07 16:33 47.00592 7.99754 15840 ft 186 kts 336°
2026-05-07 16:33 47.01814 7.99107 16244 ft 187 kts 336°
2026-05-07 16:34 47.03044 7.98454 16645 ft 189 kts 336°
2026-05-07 16:34 47.04282 7.97796 17065 ft 189 kts 336°
2026-05-07 16:34 47.05524 7.97137 17459 ft 191 kts 336°
2026-05-07 16:34 47.06776 7.96471 17879 ft 192 kts 336°
2026-05-07 16:35 47.08030 7.95804 18287 ft 193 kts 336°
2026-05-07 16:35 47.09294 7.95132 18655 ft 194 kts 336°
2026-05-07 16:35 47.10562 7.94457 19026 ft 195 kts 336°
2026-05-07 16:35 47.11839 7.93777 19405 ft 195 kts 336°
2026-05-07 16:36 47.13116 7.93097 19769 ft 196 kts 336°
2026-05-07 16:36 47.14390 7.92416 20000 ft 203 kts 336°
2026-05-07 16:36 47.15778 7.91673 20005 ft 221 kts 336°
2026-05-07 16:36 47.17314 7.91077 20010 ft 238 kts 352°
2026-05-07 16:37 47.19006 7.91326 20010 ft 253 kts 14°
2026-05-07 16:37 47.20677 7.92299 20014 ft 263 kts 20°
2026-05-07 16:37 47.22378 7.93387 20015 ft 270 kts 21°
2026-05-07 16:37 47.24123 7.94487 20013 ft 275 kts 20°
2026-05-07 16:38 47.25897 7.95585 20014 ft 278 kts 20°
2026-05-07 16:38 47.27691 7.96696 20018 ft 281 kts 20°
2026-05-07 16:38 47.29498 7.97823 20018 ft 283 kts 21°
2026-05-07 16:38 47.31313 7.98957 20019 ft 284 kts 20°
2026-05-07 16:39 47.33114 8.00081 20018 ft 285 kts 20°
2026-05-07 16:39 47.34939 8.01223 20017 ft 285 kts 21°
2026-05-07 16:39 47.36639 8.02735 20010 ft 288 kts 37°
2026-05-07 16:39 47.38008 8.04893 20007 ft 290 kts 53°
2026-05-07 16:40 47.39133 8.07363 20010 ft 290 kts 56°
2026-05-07 16:40 47.40235 8.09818 20013 ft 291 kts 55°
2026-05-07 16:40 47.41361 8.12309 20013 ft 292 kts 55°
2026-05-07 16:40 47.42493 8.14806 20012 ft 293 kts 55°
2026-05-07 16:41 47.43624 8.17311 20010 ft 293 kts 55°
2026-05-07 16:41 47.44755 8.19819 20000 ft 293 kts 55°
2026-05-07 16:41 47.45882 8.22322 20007 ft 292 kts 55°
2026-05-07 16:41 47.47008 8.24821 20008 ft 292 kts 55°
2026-05-07 16:42 47.47753 8.26478 20001 ft 292 kts 55°
2026-05-07 16:42 47.48876 8.28975 20001 ft 292 kts 56°
2026-05-07 16:42 47.49999 8.31476 20007 ft 292 kts 55°
2026-05-07 16:42 47.51123 8.33980 20015 ft 292 kts 56°
2026-05-07 16:43 47.52247 8.36486 20010 ft 292 kts 56°
2026-05-07 16:43 47.53354 8.38958 20004 ft 292 kts 56°
2026-05-07 16:43 47.54477 8.41466 20014 ft 291 kts 56°
2026-05-07 16:43 47.55595 8.43967 20023 ft 291 kts 56°
2026-05-07 16:44 47.56711 8.46466 20023 ft 291 kts 56°
2026-05-07 16:44 47.57826 8.48964 20026 ft 291 kts 56°
2026-05-07 16:44 47.58908 8.51510 20015 ft 292 kts 62°
2026-05-07 16:44 47.59581 8.54335 20015 ft 292 kts 78°
2026-05-07 16:45 47.59741 8.57322 20013 ft 291 kts 92°
2026-05-07 16:45 47.59676 8.60316 20014 ft 290 kts 92°
2026-05-07 16:45 47.59610 8.63304 20015 ft 291 kts 92°
2026-05-07 16:45 47.59550 8.66297 20014 ft 291 kts 92°
2026-05-07 16:46 47.59490 8.69286 20013 ft 290 kts 92°
2026-05-07 16:46 47.59427 8.72275 20013 ft 290 kts 92°
2026-05-07 16:46 47.59362 8.75264 20013 ft 290 kts 92°
2026-05-07 16:46 47.59299 8.78211 20013 ft 290 kts 92°
2026-05-07 16:47 47.59473 8.81181 20011 ft 290 kts 77°
2026-05-07 16:47 47.60167 8.83970 20010 ft 289 kts 61°
2026-05-07 16:47 47.61205 8.86509 20018 ft 288 kts 57°
2026-05-07 16:47 47.62266 8.89035 20017 ft 288 kts 57°
2026-05-07 16:48 47.63321 8.91562 20020 ft 289 kts 57°
2026-05-07 16:48 47.64351 8.94036 20020 ft 289 kts 57°
2026-05-07 16:48 47.65407 8.96570 20020 ft 289 kts 57°
2026-05-07 16:48 47.66463 8.99104 20016 ft 289 kts 57°
2026-05-07 16:49 47.67517 9.01638 20025 ft 288 kts 57°
2026-05-07 16:49 47.68569 9.04169 20024 ft 288 kts 57°
2026-05-07 16:49 47.69628 9.06687 20024 ft 286 kts 54°
2026-05-07 16:49 47.70962 9.08851 20028 ft 284 kts 38°
2026-05-07 16:50 47.72617 9.10409 20023 ft 281 kts 22°
2026-05-07 16:50 47.74470 9.11273 20027 ft 279 kts
2026-05-07 16:50 47.76385 9.11614 20027 ft 277 kts
2026-05-07 16:50 47.78306 9.11930 20027 ft 278 kts
2026-05-07 16:51 47.80230 9.12250 20026 ft 278 kts
2026-05-07 16:51 47.82152 9.12556 20026 ft 278 kts
2026-05-07 16:51 47.84079 9.12859 20026 ft 278 kts
2026-05-07 16:51 47.86001 9.13178 20026 ft 279 kts
2026-05-07 16:52 47.87931 9.13509 20022 ft 279 kts
2026-05-07 16:52 47.89860 9.13834 20022 ft 279 kts
2026-05-07 16:52 47.91792 9.14151 20021 ft 279 kts
2026-05-07 16:52 47.93694 9.14463 20021 ft 278 kts
2026-05-07 16:53 47.95644 9.14786 20021 ft 278 kts
2026-05-07 16:53 47.97539 9.15102 20021 ft 278 kts
2026-05-07 16:53 47.99457 9.15420 20021 ft 277 kts
2026-05-07 16:53 48.01371 9.15737 20021 ft 277 kts
2026-05-07 16:54 48.03283 9.16055 20021 ft 276 kts
2026-05-07 16:54 48.05170 9.16369 20020 ft 276 kts
2026-05-07 16:54 48.07074 9.16684 20020 ft 275 kts
2026-05-07 16:54 48.08979 9.16998 20023 ft 275 kts
2026-05-07 16:55 48.10880 9.17313 20022 ft 275 kts
2026-05-07 16:55 48.12776 9.17627 20024 ft 274 kts
2026-05-07 16:55 48.14668 9.17940 20024 ft 274 kts
2026-05-07 16:55 48.16571 9.18256 20024 ft 274 kts
2026-05-07 16:56 48.18470 9.18571 20025 ft 275 kts
2026-05-07 16:56 48.20369 9.18887 20025 ft 275 kts
2026-05-07 16:56 48.24170 9.19521 20025 ft 275 kts
2026-05-07 16:57 48.26076 9.19839 20025 ft 276 kts
2026-05-07 16:57 48.27983 9.20157 20025 ft 276 kts
2026-05-07 16:57 48.29899 9.20478 20025 ft 278 kts
2026-05-07 16:57 48.31823 9.20800 20026 ft 278 kts
2026-05-07 16:58 48.33748 9.21122 20025 ft 279 kts
2026-05-07 16:58 48.35653 9.21441 20026 ft 279 kts
2026-05-07 16:58 48.37585 9.21765 20026 ft 280 kts
2026-05-07 16:58 48.39517 9.22089 20026 ft 280 kts
2026-05-07 16:59 48.41455 9.22415 20025 ft 280 kts
2026-05-07 16:59 48.43386 9.22739 20024 ft 279 kts
2026-05-07 16:59 48.45313 9.23067 20025 ft 279 kts
2026-05-07 16:59 48.47242 9.23400 20026 ft 279 kts
2026-05-07 17:00 48.49172 9.23733 20022 ft 280 kts
2026-05-07 17:00 48.51109 9.24065 20025 ft 280 kts
2026-05-07 17:00 48.53047 9.24399 20046 ft 280 kts
2026-05-07 17:00 48.54982 9.24732 20049 ft 280 kts
2026-05-07 17:01 48.56921 9.25066 20053 ft 281 kts
2026-05-07 17:01 48.58863 9.25401 20056 ft 281 kts
2026-05-07 17:01 48.60804 9.25662 20052 ft 278 kts 356°
2026-05-07 17:01 48.62692 9.25250 20058 ft 273 kts 340°
2026-05-07 17:02 48.64439 9.24206 20058 ft 269 kts 332°
2026-05-07 17:02 48.66132 9.23081 20057 ft 270 kts 333°
2026-05-07 17:02 48.67852 9.21948 20059 ft 270 kts 333°
2026-05-07 17:02 48.69572 9.20814 20053 ft 270 kts 333°
2026-05-07 17:03 48.71293 9.19676 20063 ft 270 kts 333°
2026-05-07 17:03 48.73017 9.18535 20055 ft 270 kts 332°
2026-05-07 17:03 48.74739 9.17395 20056 ft 270 kts 332°
2026-05-07 17:03 48.76463 9.16252 20057 ft 271 kts 332°
2026-05-07 17:04 48.78187 9.15108 20053 ft 270 kts 332°
2026-05-07 17:04 48.79912 9.13964 20050 ft 271 kts 332°
2026-05-07 17:04 48.81638 9.12817 20051 ft 271 kts 332°
2026-05-07 17:04 48.83368 9.11667 20050 ft 272 kts 332°
2026-05-07 17:05 48.85102 9.10513 20053 ft 272 kts 332°
2026-05-07 17:05 48.86811 9.09381 20049 ft 272 kts 333°
2026-05-07 17:05 48.88656 9.08668 20045 ft 278 kts 349°
2026-05-07 17:05 48.90605 9.08740 20045 ft 281 kts
2026-05-07 17:06 48.92492 9.09031 20041 ft 265 kts
2026-05-07 17:06 48.94273 9.09299 20033 ft 251 kts
2026-05-07 17:06 48.95978 9.09535 20035 ft 242 kts
2026-05-07 17:06 48.97643 9.09764 19887 ft 242 kts
2026-05-07 17:07 48.99313 9.09998 19645 ft 245 kts
2026-05-07 17:07 49.01012 9.10243 19401 ft 248 kts
2026-05-07 17:07 49.02739 9.10492 19157 ft 250 kts
2026-05-07 17:07 49.04472 9.10740 18915 ft 251 kts
2026-05-07 17:08 49.06211 9.10989 18674 ft 252 kts
2026-05-07 17:08 49.07959 9.11239 18437 ft 253 kts
2026-05-07 17:08 49.09706 9.11490 18182 ft 253 kts
2026-05-07 17:08 49.11463 9.11742 17910 ft 253 kts
2026-05-07 17:09 49.13214 9.11993 17640 ft 253 kts
2026-05-07 17:09 49.14965 9.12245 17374 ft 253 kts
2026-05-07 17:09 49.16715 9.12496 17123 ft 252 kts
2026-05-07 17:09 49.18459 9.12748 16861 ft 251 kts
2026-05-07 17:10 49.20198 9.12998 16595 ft 251 kts
2026-05-07 17:10 49.21930 9.13243 16338 ft 250 kts
2026-05-07 17:10 49.23658 9.13487 16081 ft 249 kts
2026-05-07 17:10 49.25379 9.13732 15829 ft 248 kts
2026-05-07 17:11 49.27097 9.13977 15573 ft 247 kts
2026-05-07 17:11 49.28786 9.14218 15327 ft 247 kts
2026-05-07 17:11 49.30517 9.14464 15076 ft 246 kts
2026-05-07 17:11 49.32177 9.14701 14836 ft 246 kts
2026-05-07 17:12 49.33878 9.14943 14594 ft 245 kts
2026-05-07 17:12 49.35571 9.15185 14356 ft 245 kts
2026-05-07 17:12 49.37266 9.15427 14115 ft 244 kts
2026-05-07 17:12 49.38952 9.15668 13886 ft 241 kts
2026-05-07 17:13 49.40578 9.15906 13614 ft 228 kts
2026-05-07 17:13 49.42112 9.16128 13342 ft 216 kts
2026-05-07 17:13 49.43574 9.16335 13075 ft 206 kts
2026-05-07 17:13 49.44973 9.16535 12809 ft 199 kts
2026-05-07 17:14 49.46328 9.16729 12543 ft 192 kts
2026-05-07 17:14 49.47640 9.16917 12283 ft 187 kts
2026-05-07 17:14 49.48921 9.17100 12025 ft 183 kts
2026-05-07 17:14 49.50178 9.17281 11768 ft 180 kts
2026-05-07 17:15 49.51413 9.17458 11514 ft 177 kts
2026-05-07 17:15 49.52631 9.17633 11262 ft 174 kts
2026-05-07 17:15 49.53832 9.17806 11012 ft 172 kts
2026-05-07 17:15 49.55019 9.17976 10764 ft 170 kts
2026-05-07 17:16 49.56193 9.18145 10519 ft 169 kts
2026-05-07 17:16 49.57362 9.18314 10275 ft 168 kts
2026-05-07 17:16 49.58521 9.18481 10055 ft 166 kts
2026-05-07 17:16 49.59616 9.18641 10042 ft 151 kts
2026-05-07 17:17 49.60699 9.18787 10057 ft 170 kts
2026-05-07 17:17 49.61979 9.18963 10056 ft 198 kts
2026-05-07 17:17 49.63419 9.19179 10057 ft 217 kts
2026-05-07 17:17 49.64945 9.19467 10055 ft 230 kts 11°
2026-05-07 17:18 49.66443 9.20496 10052 ft 243 kts 32°
2026-05-07 17:18 49.67702 9.22287 10055 ft 250 kts 44°
2026-05-07 17:18 49.68909 9.24260 10060 ft 256 kts 45°
2026-05-07 17:18 49.70141 9.26270 10059 ft 259 kts 45°
2026-05-07 17:19 49.71396 9.28292 10059 ft 262 kts 44°
2026-05-07 17:19 49.72811 9.30037 10062 ft 261 kts 28°
2026-05-07 17:19 49.74490 9.31067 10058 ft 260 kts 11°
2026-05-07 17:19 49.76255 9.31632 10063 ft 259 kts
2026-05-07 17:20 49.78016 9.32191 10065 ft 256 kts 10°
2026-05-07 17:20 49.79738 9.32748 9925 ft 252 kts
2026-05-07 17:20 49.81471 9.33270 9442 ft 256 kts
2026-05-07 17:20 49.83246 9.33151 8978 ft 256 kts 347°
2026-05-07 17:21 49.84914 9.32220 8511 ft 256 kts 330°
2026-05-07 17:21 49.86330 9.30565 8050 ft 255 kts 314°
2026-05-07 17:21 49.87350 9.28380 7591 ft 245 kts 297°
2026-05-07 17:21 49.87923 9.25972 7142 ft 232 kts 286°
2026-05-07 17:22 49.88365 9.23637 6698 ft 221 kts 287°
2026-05-07 17:22 49.88795 9.21396 6241 ft 213 kts 287°
2026-05-07 17:22 49.89203 9.19267 6055 ft 195 kts 287°
2026-05-07 17:22 49.89564 9.17376 6046 ft 172 kts 287°
2026-05-07 17:23 49.89883 9.15701 6041 ft 152 kts 287°
2026-05-07 17:23 49.90181 9.14175 5850 ft 148 kts 288°
2026-05-07 17:23 49.90475 9.12606 5494 ft 153 kts 284°
2026-05-07 17:23 49.90626 9.11029 5293 ft 149 kts 274°
2026-05-07 17:24 49.90648 9.09348 4863 ft 160 kts 272°
2026-05-07 17:24 49.90728 9.07667 4671 ft 152 kts 281°
2026-05-07 17:24 49.90979 9.06075 4361 ft 154 kts 286°
2026-05-07 17:24 49.91246 9.04493 4064 ft 155 kts 285°
2026-05-07 17:25 49.91511 9.02800 3540 ft 168 kts 283°
2026-05-07 17:25 49.91441 9.00916 3039 ft 181 kts 246°
2026-05-07 17:25 49.90739 8.99431 2875 ft 170 kts 232°
2026-05-07 17:25 49.90031 8.98026 2720 ft 160 kts 233°
2026-05-07 17:26 49.89328 8.96684 2432 ft 161 kts 232°
2026-05-07 17:26 49.88730 8.95250 2299 ft 163 kts 244°
2026-05-07 17:26 49.88224 8.93703 2267 ft 160 kts 244°
2026-05-07 17:26 49.87696 8.92174 2043 ft 158 kts 243°
2026-05-07 17:27 49.87186 8.90710 1933 ft 152 kts 243°
2026-05-07 17:27 49.86696 8.89258 1744 ft 153 kts 244°
2026-05-07 17:27 49.86277 8.87773 1590 ft 151 kts 252°
2026-05-07 17:27 49.86013 8.86206 1533 ft 151 kts 260°
2026-05-07 17:28 49.85810 8.84613 1531 ft 150 kts 263°
2026-05-07 17:28 49.85630 8.83059 1506 ft 145 kts 262°
2026-05-07 17:28 49.85451 8.81494 1499 ft 151 kts 263°
2026-05-07 17:28 49.85332 8.79838 1515 ft 157 kts 274°
2026-05-07 17:29 49.85573 8.78186 1545 ft 161 kts 292°
2026-05-07 17:29 49.85999 8.76570 1507 ft 162 kts 294°
2026-05-07 17:29 49.86417 8.74960 1509 ft 159 kts 295°
2026-05-07 17:29 49.86868 8.73407 1515 ft 156 kts 297°
2026-05-07 17:30 49.87331 8.71856 1400 ft 159 kts 299°
2026-05-07 17:30 49.87843 8.70376 1434 ft 152 kts 302°
2026-05-07 17:30 49.88354 8.68955 1447 ft 149 kts 300°
2026-05-07 17:30 49.88854 8.67530 1368 ft 152 kts 301°
2026-05-07 17:31 49.89335 8.66117 1351 ft 150 kts 295°
2026-05-07 17:31 49.89660 8.64601 1317 ft 142 kts 288°
2026-05-07 17:31 49.89967 8.63200 1267 ft 131 kts 290°
2026-05-07 17:31 49.89945 8.61802 1258 ft 143 kts 233°
2026-05-07 17:32 49.89074 8.61266 1518 ft 136 kts 159°
2026-05-07 17:32 49.88780 8.62401 1537 ft 128 kts 47°
2026-05-07 17:32 49.89598 8.62562 1263 ft 139 kts 336°
2026-05-07 17:32 49.90197 8.62214 1184 ft 136 kts 343°
2026-05-07 17:33 49.91437 8.61811 1185 ft 136 kts 352°
2026-05-07 17:33 49.92380 8.61605 1169 ft 135 kts 352°
2026-05-07 17:33 49.93239 8.61415 1237 ft 114 kts 353°
2026-05-07 17:33 49.93977 8.61278 1185 ft 103 kts 355°
2026-05-07 17:34 49.94685 8.61145 1056 ft 101 kts 353°
2026-05-07 17:34 49.95314 8.60989 1027 ft 102 kts 349°
2026-05-07 17:34 49.95994 8.60796 1172 ft 95 kts 350°
2026-05-07 17:34 49.96663 8.60613 1258 ft 99 kts 352°
2026-05-07 17:35 49.97366 8.60395 1239 ft 108 kts 351°
2026-05-07 17:35 49.98099 8.60207 1284 ft 106 kts 354°
2026-05-07 17:35 49.98785 8.60349 1278 ft 105 kts 56°
2026-05-07 17:35 49.98462 8.61125 1203 ft 109 kts 186°
2026-05-07 17:36 49.98095 8.60295 1213 ft 105 kts 289°
2026-05-07 17:36 49.98649 8.59906 1119 ft 109 kts 34°
2026-05-07 17:36 49.98591 8.60840 1133 ft 108 kts 161°
2026-05-07 17:36 49.98034 8.60252 1138 ft 113 kts 269°
2026-05-07 17:37 49.98550 8.59594 1121 ft 114 kts 21°
2026-05-07 17:37 49.98646 8.60612 1092 ft 115 kts 137°
2026-05-07 17:37 49.97987 8.60418 1102 ft 117 kts 251°
2026-05-07 17:37 49.98358 8.59492 1099 ft 116 kts 359°
2026-05-07 17:38 49.98704 8.60323 1083 ft 115 kts 129°
2026-05-07 17:38 49.98073 8.60122 1101 ft 115 kts 257°
2026-05-07 17:38 49.98540 8.59415 1079 ft 115 kts
2026-05-07 17:38 49.99324 8.59386 1087 ft 113 kts 353°
2026-05-07 17:39 50.00077 8.59203 1114 ft 107 kts 353°
2026-05-07 17:39 50.00812 8.59172 1144 ft 101 kts 20°
2026-05-07 17:39 50.01187 8.60030 1093 ft 104 kts 51°
2026-05-07 17:39 50.01891 8.60415 1033 ft 113 kts
2026-05-07 17:40 50.02415 8.60475 1091 ft 110 kts
2026-05-07 17:40 50.03194 8.60523 1045 ft 114 kts
2026-05-07 17:40 50.03966 8.60335 793 ft 115 kts 334°
2026-05-07 17:40 50.04160 8.59294 532 ft 112 kts 250°
2026-05-07 17:41 50.03908 8.58235 384 ft 95 kts 249°
2026-05-07 17:41 50.03714 8.57396 353 ft 69 kts 244°
2026-05-07 17:41 50.03555 8.56786 349 ft 55 kts 247°
2026-05-07 17:41 50.03432 8.56257 350 ft 51 kts 249°
2026-05-07 17:42 50.03302 8.55714 338 ft 57 kts 250°
2026-05-07 17:42 50.03162 8.55125 340 ft 56 kts 250°
2026-05-07 17:42 50.03049 8.54704 333 ft 32 kts 217°
2026-05-07 17:42 50.02924 8.54706 333 ft 0 kts 162°
2026-05-07 17:43 50.02917 8.54714 334 ft 7 kts 128°
2026-05-07 17:44 50.02850 8.54826 336 ft 18 kts 168°
2026-05-07 17:44 50.02771 8.54687 335 ft 21 kts 252°
2026-05-07 17:44 50.02715 8.54447 337 ft 26 kts 246°
2026-05-07 17:44 50.02657 8.54163 334 ft 30 kts 251°
2026-05-07 17:45 50.02587 8.53868 330 ft 30 kts 245°
2026-05-07 17:45 50.02525 8.53609 331 ft 25 kts 248°
2026-05-07 17:45 50.02462 8.53341 331 ft 28 kts 248°
2026-05-07 17:45 50.02394 8.53064 329 ft 28 kts 248°
2026-05-07 17:46 50.02322 8.52850 331 ft 22 kts 204°
2026-05-07 17:46 50.02173 8.52834 332 ft 16 kts 169°
2026-05-07 17:46 50.02152 8.52998 331 ft 16 kts 83°
2026-05-07 17:46 50.02189 8.53090 330 ft 14 kts 38°
2026-05-07 17:47 50.02225 8.53199 329 ft 9 kts 66°
2026-05-07 17:47 50.02243 8.53273 329 ft 7 kts 70°
2026-05-07 17:47 50.02274 8.53297 331 ft 7 kts 337°
2026-05-07 17:47 50.02297 8.53284 327 ft 1 kts 339°
2026-05-07 17:48 50.02299 8.53282 328 ft 0 kts 338°